Simultaneous Nadir Overpasses (SNOs) Predictions

Prediction of SNOs between GOES-17 and METOP-C Satellite Orbit:

Table of predicted SNOs for the next 14.0 days since TLE Epoch: 7/2/2022
Index Date Time (GOES-17) GOES-17 Lat,Lon METOP-C Lat,Lon Distance(km) Time Diff (sec)
1 07/03/2022 06:38:42 -0.03,-137.20 -0.05,-137.28 9.45 80
2 07/05/2022 18:39:35 0.02,-137.20 -0.07,-136.86 38.88 80
3 07/07/2022 06:55:55 -0.02,-137.19 -0.94,-141.46 485.83 80
4 07/08/2022 06:37:56 -0.02,-137.18 0.17,-136.47 82.61 80
5 07/09/2022 18:54:07 0.02,-137.17 0.89,-141.02 439.35 80
6 07/10/2022 18:36:08 0.02,-137.16 -0.22,-136.03 128.36 80
7 07/12/2022 06:52:27 -0.02,-137.13 -0.83,-140.62 397.99 80
8 07/13/2022 06:34:27 -0.03,-137.11 0.29,-135.63 169.15 80
9 07/14/2022 18:50:40 0.02,-137.08 0.72,-140.19 354.51 80
10 07/15/2022 18:32:40 0.02,-137.06 -0.39,-135.20 212.34 80
